Location: Le Castellard
(44.1862°N, 6.1301°E)
Time: 22:02:02
(UTC+00:00)

STARLINK-71 - Pass Details

Date: 18 January 2020
Orbit: 528 x 531 km, 53.0° (Epoch: 18 February)

Event Time Altitude Azimuth Distance (km) Brightness Sun altitude
Rises 06:16:32 0° 229° (SW) 2,657 6.8 -9.0°
Reaches altitude 10° 06:18:44 10° 227° (SW) 1,771 5.9 -8.6°
Maximum altitude 06:22:45 74° 143° (SE) 555 3.8 -7.9°
Drops below altitude 10° 06:26:47 10° 59° (ENE) 1,783 6.8 -7.2°
Sets 06:29:00 0° 57° (ENE) 2,676 7.7 -6.9°
